Regional Weather Roundup
Issued by NWS

Home | Current Version | Previous Version | Graphics & Text | Print | Product List | Glossary On
Versions: 1 2 3 4 5 6 7 8 9 10 11 12 13 14 15 16 17 18 19 20 21 22 23 24 25 26 27 28 29 30 31 32 33 34 35 36 37 38 39 40 41 42 43 44 45 46 47 48 49 50
000
ASUS43 KFSD 290602
RWRSD

WEATHER ROUNDUP FOR SOUTH DAKOTA
NATIONAL WEATHER SERVICE SIOUX FALLS SD
100 AM CDT THU SEP 29 2016

NOTE: "FAIR" INDICATES FEW OR NO CLOUDS BELOW 12,000 FEET WITH NO
SIGNIFICANT WEATHER AND/OR OBSTRUCTIONS TO VISIBILITY.


SDZ001>005-009-010-012>017-290700-
NORTHWEST AND NORTH CENTRAL SOUTH DAKOTA

CITY           SKY/WX    TMP DP  RH WIND       PRES   REMARKS
BUFFALO          N/A     54  33  45 SE13      30.26R
FAITH            N/A     50  44  80 SE13      30.35R
MOBRIDGE       CLEAR     48  40  73 E8        30.36S
$$

SDZ012>016-024>037-041>051-057-063-072>074-290700-
SOUTHWEST AND SOUTH CENTRAL SOUTH DAKOTA

CITY           SKY/WX    TMP DP  RH WIND       PRES   REMARKS
RAPID CTY ARPT CLEAR     49  38  65 S6        30.35F
PIERRE         CLEAR     44  39  82 E7        30.36S
CUSTER         CLEAR     47  36  65 CALM      30.43S
ELLSWORTH AFB  CLEAR     52  37  56 S8        30.34F
PHILIP         CLEAR     45  40  82 E6        30.36R
PINE RIDGE     CLEAR     57  30  35 SE8       30.35S
WINNER         FAIR      47  42  83 S7        30.37S
$$

SDZ004>011-016>023-039-040-290700-
NORTHEAST SOUTH DAKOTA

CITY           SKY/WX    TMP DP  RH WIND       PRES   REMARKS
ABERDEEN       CLOUDY    43  40  89 NE5       30.40S
WATERTOWN      CLOUDY    43  41  93 CALM      30.41R
SISSETON         N/A     41  38  89 SW3       30.40S
$$

SDZ017-020-022-023-036>040-048>070-290700-
SOUTHEAST SOUTH DAKOTA

CITY           SKY/WX    TMP DP  RH WIND       PRES   REMARKS
SIOUX FALLS    CLEAR     45  43  93 CALM      30.40R
HURON          CLOUDY    45  43  93 CALM      30.40R
CHAMBERLAIN    CLEAR     50  46  86 SE8       30.38S
MITCHELL       CLOUDY    45  42  89 CALM      30.40R
YANKTON        CLEAR     46  43  87 CALM      30.37S
$$

ABBREVIATIONS USED IN REMARKS
   TC - TEMPERATURE IN CELSIUS
  WCI - WIND CHILL INDEX
   HX - HEAT INDEX
  VSB - VISIBILITY




USA.gov is the U.S. government's official web portal to all federal, state and local government web resources and services.